This demonstration page uses our WeatherBlox Daily Observations layout. Learn more.

Hourly Observations for October 7, 2020

Temp ( °F °C ) Dew Point ( °F °C ) Humidity (%) Winds ( mph kmh ) Pressure ( in mb ) Visibility ( mi km ) Precip ( " mm )
12:54 am 00:54 Clear 64 17.8 45 7.2 50 50 SSW 8 13 29.87 1011 10 16.0934 0 0
1:54 am 01:54 Clear 59 15 44 6.7 58 58 Calm 29.87 1012 10 16.0934 0 0
2:54 am 02:54 Clear 57 13.9 43 6.1 60 60 Calm 29.88 1012 10 16.0934 0 0
3:54 am 03:54 Clear 57 13.9 43 6.1 60 60 Calm 29.88 1012 10 16.0934 0 0
4:54 am 04:54 Clear 59 15 42 5.6 54 54 NW 3 6 29.89 1012 10 16.0934 0 0
5:54 am 05:54 Clear 49 9.4 41 5 74 74 SSW 3 6 29.91 1013 10 16.0934 0 0
6:54 am 06:54 Clear 50 10 42 5.6 74 74 S 7 11 29.91 1013 10 16.0934 0 0
7:54 am 07:54 Sunny 52 11.1 42 5.6 69 69 NW 3 6 29.96 1014 10 16.0934 0 0
8:54 am 08:54 Sunny 57 13.9 44 6.7 62 62 Calm 29.97 1015 10 16.0934 0 0
9:54 am 09:54 Sunny 63 17.2 44 6.7 50 50 NNW 3 6 29.98 1015 10 16.0934 0 0
10:54 am 10:54 Sunny 71 21.7 45 7.2 39 39 NE 10 17 29.99 1016 9 14.48406 0 0
11:54 am 11:54 Sunny 74 23.3 46 7.8 37 37 NE 13 20 30 1016 10 16.0934 0 0
12:54 pm 12:54 Sunny 82 27.8 47 8.3 29 29 ENE 15 24 30 1016 10 16.0934 0 0
1:54 pm 13:54 Sunny 84 28.9 46 7.8 27 27 ENE 15 24 29.99 1016 10 16.0934 0 0
2:54 pm 14:54 Sunny 85 29.4 45 7.2 25 25 ENE 15 24 29.97 1015 10 16.0934 0 0
3:54 pm 15:54 Sunny 85 29.4 45 7.2 25 25 E 12 19 29.96 1015 10 16.0934 0 0
4:54 pm 16:54 Sunny 84 28.9 44 6.7 25 25 ENE 13 20 29.97 1015 10 16.0934 0 0
5:54 pm 17:54 Sunny 82 27.8 44 6.7 26 26 ENE 12 19 29.99 1016 10 16.0934 0 0
6:54 pm 18:54 Sunny 72 22.2 45 7.2 38 38 NE 10 17 30.01 1016 10 16.0934 0 0
7:54 pm 19:54 Clear 64 17.8 44 6.7 48 48 NE 10 17 30.03 1017 10 16.0934 0 0
8:54 pm 20:54 Clear 63 17.2 43 6.1 48 48 NE 10 17 30.04 1017 10 16.0934 0 0
9:54 pm 21:54 Clear 61 16.1 43 6.1 52 52 ENE 6 9 30.05 1018 10 16.0934 0 0
10:54 pm 22:54 Clear 62 16.7 43 6.1 50 50 N 3 6 30.05 1018 10 16.0934 0 0
11:54 pm 23:54 Clear 62 16.7 43 6.1 50 50 NW 3 6 30.06 1018 10 16.0934 0 0

Powered by AerisWeather